Main page
METAR-TAF:

METAR-TAF

Airports :

Yeovilton, England

RNAS Yeovilton (HMS Heron)

latitude: 51-00N, longitude: 002-38W, elevation: 23 m

Current weather observation

The report was made 36 minutes ago, at 01:50 UTC
Wind 3 kt from the East/Southeast
Temperature -1°C
Humidity 100%
Pressure 1025 hPa
Visibility: 6000 m
mist

METAR: EGDY 170150Z AUTO 12003KT 6000 BR NCD M01/M01 Q1025

Time: 02:26 (02:26 UTC)


TAF: missing

Weather observations and forecasts of more than 4000 airports (METAR and TAF reports).

The available stations are represented by yellow and red dots on the map.

Hover mouse over dot to see the name of the station.

Then click to see weather observations and forecasts.

To change the map : click on the green buttons with a black cross to zoom in, on the green button with a dash to zoom out, or on the green arrows for adjacent maps.


METAR-TAF: